Regional Weather Roundup
Issued by NWS

Home | Current Version | Previous Version | Graphics & Text | Print | Product List | Glossary On
Versions: 1 2 3 4 5 6 7 8 9 10 11 12 13 14 15 16 17 18 19 20 21 22 23 24 25 26 27 28 29 30 31 32 33 34 35 36 37 38 39 40 41 42 43 44 45 46 47 48 49 50
000
ASUS45 KTFX 041410
RWRMT
MONTANA REGIONAL WEATHER ROUNDUP
NATIONAL WEATHER SERVICE GREAT FALLS MT
800 AM MDT SAT JUL 04 2015

NOTE: "FAIR" INDICATES FEW OR NO CLOUDS BELOW 12000 FEET WITH NO
SIGNIFICANT WEATHER AND/OR OBSTRUCTIONS TO VISIBILITY.

MTZ001>007-043-041500-
WEST OF THE DIVIDE

CITY           SKY/WX    TMP DP  RH WIND       PRES   REMARKS
KALISPELL      SUNNY     68  53  58 N3        29.84S
MISSOULA       SUNNY     64  48  56 CALM      29.93R
BUTTE          SUNNY     57  40  52 CALM      30.07S
MULLAN PASS    SUNNY     68  33  27 CALM      30.06S
DEER LODGE       N/A     64  45  48 CALM      30.04S
EUREKA           N/A     72  50  46 CALM      29.85S
HAMILTON         N/A     66  45  45 S14       29.93F
LIBBY            N/A     64  46  52 CALM      29.86R
PLAINS           N/A     62  49  62 CALM      29.88S
RONAN            N/A     70  54  56 SE2       29.92R
THOMPSON FALLS   N/A     63  48  57 CALM      29.91S
$$

MTZ008-052>055-041500-
SOUTHWEST MONTANA

CITY           SKY/WX    TMP DP  RH WIND       PRES   REMARKS
BOZEMAN        SUNNY     67  49  52 VRB3      29.98S
DILLON         SUNNY     60  47  61 SW8       30.02S
W YELLOWSTONE  SUNNY     54  41  62 CALM      30.14S
THREE FORKS      N/A     64  64 100 CALM      29.97R
$$

MTZ009-010-012-014-046-048-049-054-041500-
EAST SLOPES AND CENTRAL MONTANA

CITY           SKY/WX    TMP DP  RH WIND       PRES   REMARKS
CUT BANK       MOSUNNY   61  51  70 N23G30    29.93R
GREAT FALLS    SUNNY     73  45  36 SW12      29.85R
MALMSTROM AFB  SUNNY     75  44  33 SW9       29.85R
HELENA         SUNNY     68  44  42 N3        29.93R
CONRAD           N/A     64  59  84 W20       29.92R
$$

MTZ011-013-016-021-045-047-050-051-041500-
NORTH CENTRAL MONTANA

CITY           SKY/WX    TMP DP  RH WIND       PRES   REMARKS
HAVRE          SUNNY     73  50  44 SW15      29.74S
LEWISTOWN      SUNNY     72  53  51 E5        29.89R
CHINOOK          N/A     70  54  56 N3        29.74S
FORT BENTON      N/A     75  46  35 SW13      29.82R
$$

MTZ017>020-022>027-061-062-041500-
NORTHEAST MONTANA

CITY           SKY/WX    TMP DP  RH WIND       PRES   REMARKS
GLASGOW        SUNNY     73  58  59 SE8       29.72F
JORDAN           N/A     73  53  49 CALM      29.75F
SIDNEY         SUNNY     70  61  73 S3        29.77R
WOLF POINT     SUNNY     70  62  76 NE5       29.72F HAZE
PLENTYWOOD       N/A     70  64  83 SE7       29.74F
POPLAR           N/A     73  63  68 SE3       29.73F
SCOBEY           N/A     70  61  73 SE3       29.74F
$$

MTZ028>42-056>058-041500-
SOUTHCENTRAL AND SOUTHEAST MONTANA

CITY           SKY/WX    TMP DP  RH WIND       PRES   REMARKS
BAKER          SUNNY     73  62  68 SE8       29.83F
BILLINGS       MOSUNNY   68  53  58 SW7       29.87S
LIVINGSTON     SUNNY     66  48  52 NW7       29.97R
MILES CITY     SUNNY     72  62  71 S8        29.78S
EKALAKA          N/A     75  58  55 SE1       29.85F
FORSYTH          N/A     73  61  64 CALM      29.78S
LAUREL           N/A     69  51  52 SW7       29.88R
ROUNDUP          N/A     68  51  54 S8        29.78R
$$

REGIONAL REPORTS...DAKOTAS

CITY           SKY/WX    TMP DP  RH WIND       PRES   REMARKS
WILLISTON      SUNNY     73  62  68 S5        29.76S HAZE
MINOT          SUNNY     74  62  66 S8        29.77F HAZE
DICKINSON      SUNNY     71  62  73 S12       29.80F HAZE
BEACH          FAIR      68  66  94 S9        29.82S
CROSBY         FAIR      70  70 100 S8        29.76F FOG
BISMARCK       SUNNY     70  66  87 SE8       29.83F FOG
GRAND FORKS    CLOUDY    69  63  81 SE9       29.86F HAZE
FARGO          SUNNY     72  64  76 SE9       29.88F HAZE
BUFFALO SD       N/A     68  62  81 S3        29.79S
RAPID CITY     SUNNY     70  62  76 S8        29.86F
$$

REGIONAL REPORTS...WYOMING/IDAHO/WASHINGTON

CITY           SKY/WX    TMP DP  RH WIND       PRES   REMARKS
GILLETTE       SUNNY     73  58  59 CALM      29.92S
SHERIDAN       SUNNY     70  56  61 CALM      29.89S
BUFFALO WY     SUNNY     78  53  41 NW5       29.96S
CODY           SUNNY     72  48  43 W3        29.98S
YELLOWSTONE LA   N/A     57  48  72 CALM      30.23S
IDAHO FALLS    SUNNY     63  52  67 CALM      29.99R
SALMON         MOSUNNY   57  46  67 CALM      30.00S
BOISE          MOSUNNY   76  40  27 CALM      29.86R
SPOKANE        MOSUNNY   69  44  40 S9        29.84R
$$

REGIONAL REPORTS...ALBERTA

CITY           SKY/WX    TMP DP  RH WIND       PRES   REMARKS
EDMONTON       SUNNY     59  41  51 N8        29.93R
CALGARY        PTSUNNY   63  46  55 CALM      29.96F
LETHBRIDGE     PTSUNNY   61  50  67 N8G22     29.96R
MEDICINE HAT   MOSUNNY   68  50  52 NE16G28   29.85S
WATERTON GATE    N/A     57  46  67 N5          N/A
CARDSTON         N/A     57  50  77 NW7         N/A
MILK RIVER       N/A     61  52  72 NW18G25     N/A
$$

REGIONAL REPORTS...SASKATCHEWAN

CITY           SKY/WX    TMP DP  RH WIND       PRES   REMARKS
SWIFT CURRENT  PTSUNNY   64  59  82 NE15      29.78F THUNDER
REGINA         PTSUNNY   72  61  68 NE6       29.74S
SASKATOON      LGT RAIN  63  59  88 NE6       29.79S SMOKE
CYPRESS HILLS    N/A     61  52  72 NE10G17     N/A
ROCKGLEN         N/A     73  55  53 SW9         N/A
ASSINIBOIA       N/A     57  50  77 NW7         N/A
$$



USA.gov is the U.S. government's official web portal to all federal, state and local government web resources and services.